Location: Beuerbach
(48.1459°N, 10.9174°E)
Time: 23:05:37
(UTC+00:00)

NOSS 3-4 (C) - Pass Details

Date: 23 May 2024
Orbit: 814 x 1397 km, 63.4° (Epoch: 04 June)

Event Time Altitude Azimuth Distance (km) Brightness Sun altitude
Rises 00:34:25 0° 315° (NW) 3,805 6.9 -18.8°
Reaches altitude 10° 00:37:03 10° 308° (NW) 2,932 6.2 -18.7°
Maximum altitude 00:43:32 41° 242° (WSW) 1,657 4.3 -18.3°
Enters shadow 00:47:18 26° 191° (S) 2,250 4.8 -18.0°
